Location: Recife
(8.0585°S, 34.8848°W)
Time: 14:16:29
(UTC-03:00)

Tiros 1 despin weight - Pass Details

Date: 15 April 2026
Orbit: 555 x 591 km, 48.2° (Epoch: 14 May)

Event Time Altitude Azimuth Distance (km) Brightness Sun altitude
Rises 11:27:53 0° 198° (SSW) 2,736 ? 71.9°
Reaches altitude 10° 11:30:36 10° 181° (S) 1,836 ? 71.8°
Maximum altitude 11:33:44 20° 133° (SE) 1,305 ? 71.7°
Drops below altitude 10° 11:36:51 10° 84° (E) 1,829 ? 71.5°
Sets 11:39:33 0° 67° (ENE) 2,722 ? 71.4°
